,,Stat5,,Stat1,,Stat2,,Stat3,,Stat4,,Wind1,,Wind1,
time,status,PA1M_AVG,status,PR1M_SUM,status,RH1M_AVG,status,SR1M_AVG,status,TA1M_AVG,status,W1dAve1m,status,W1sAve1m,
2002-04-26, 00:00:01,VALID,916.309,VALID,0,VALID,99.6836,VALID,-0.0679233,VALID,19.531,VALID,109,VALID,0.813072,
2002-04-26, 00:01:00,VALID,916.309,VALID,0,VALID,99.676,VALID,-0.0679233,VALID,19.5278,VALID,108,VALID,0.677484,
2002-04-26, 00:02:00,VALID,916.308,VALID,0,VALID,99.6862,VALID,-0.0849042,VALID,19.5215,VALID,101,VALID,0.712838,
2002-04-26, 00:03:00,VALID,916.307,VALID,0,VALID,99.6849,VALID,-0.0509425,VALID,19.5121,VALID,101,VALID,0.747196,
2002-04-26, 00:04:00,VALID,916.288,VALID,0,VALID,99.6849,VALID,-0.0339617,VALID,19.495,VALID,108,VALID,0.745888,
2002-04-26, 00:05:00,VALID,916.285,VALID,0,VALID,99.6887,VALID,-0.0509425,VALID,19.4922,VALID,102,VALID,0.793997,
2002-04-26, 00:06:00,VALID,916.254,VALID,0,VALID,99.6849,VALID,-0.101885,VALID,19.4823,VALID,113,VALID,0.682644,
2002-04-26, 00:07:00,VALID,916.242,VALID,0,VALID,99.6824,VALID,-0.0679233,VALID,19.4694,VALID,102,VALID,0.924219,
2002-04-26, 00:08:00,VALID,916.223,VALID,0,VALID,99.6887,VALID,0,VALID,19.4681,VALID,113,VALID,0.611579,
2002-04-26, 00:09:00,VALID,916.2,VALID,0,VALID,99.7078,VALID,0.0339617,VALID,19.4525,VALID,110,VALID,1.0024,
2002-04-26, 00:10:00,VALID,916.179,VALID,0,VALID,99.6976,VALID,0,VALID,19.4363,VALID,123,VALID,0.805099,
2002-04-26, 00:11:00,VALID,916.148,VALID,0,VALID,99.6862,VALID,0,VALID,19.4361,VALID,137,VALID,0.769326,
2002-04-26, 00:12:00,VALID,916.14,VALID,0,VALID,99.7002,VALID,0,VALID,19.4463,VALID,141,VALID,0.866554,
2002-04-26, 00:13:00,VALID,916.131,VALID,0,VALID,99.6913,VALID,0.0169808,VALID,19.4622,VALID,137,VALID,1.07051,
2002-04-26, 00:14:00,VALID,916.124,VALID,0,VALID,99.6989,VALID,0,VALID,19.4756,VALID,122,VALID,0.699319,
2002-04-26, 00:15:00,VALID,916.146,VALID,0,VALID,99.6989,VALID,0,VALID,19.4296,VALID,132,VALID,0.815905,
2002-04-26, 00:16:00,VALID,916.15,VALID,0,VALID,99.6938,VALID,0.0169808,VALID,19.4303,VALID,134,VALID,1.10115,
2002-04-26, 00:17:00,VALID,916.167,VALID,0,VALID,99.7065,VALID,0,VALID,19.4174,VALID,134,VALID,1.03721,
2002-04-26, 00:18:00,VALID,916.164,VALID,0,VALID,99.6963,VALID,0,VALID,19.4296,VALID,134,VALID,0.983108,
2002-04-26, 00:19:00,VALID,916.155,VALID,0,VALID,99.7014,VALID,0,VALID,19.4227,VALID,151,VALID,0.937695,
2002-04-26, 00:20:00,VALID,916.152,VALID,0,VALID,99.704,VALID,-0.0169808,VALID,19.4428,VALID,152,VALID,0.958734,
2002-04-26, 00:21:00,VALID,916.143,VALID,0,VALID,99.6976,VALID,0,VALID,19.4363,VALID,154,VALID,0.928486,
2002-04-26, 00:22:00,VALID,916.146,VALID,0,VALID,99.6989,VALID,-0.0169808,VALID,19.4366,VALID,147,VALID,1.16488,
2002-04-26, 00:23:00,VALID,916.15,VALID,0,VALID,99.704,VALID,0,VALID,19.4398,VALID,150,VALID,1.18709,
2002-04-26, 00:24:00,VALID,916.154,VALID,0,VALID,99.7052,VALID,0,VALID,19.4395,VALID,147,VALID,1.18961,
2002-04-26, 00:25:00,VALID,916.168,VALID,0,VALID,99.7091,VALID,0,VALID,19.4366,VALID,151,VALID,1.07109,
2002-04-26, 00:26:00,VALID,916.173,VALID,0,VALID,99.7141,VALID,0,VALID,19.4328,VALID,149,VALID,1.19651,
2002-04-26, 00:27:00,VALID,916.179,VALID,0,VALID,99.7014,VALID,0,VALID,19.4398,VALID,143,VALID,0.790865,
2002-04-26, 00:28:00,VALID,916.173,VALID,0,VALID,99.704,VALID,0.0169808,VALID,19.4326,VALID,143,VALID,0.401316,
2002-04-26, 00:29:00,VALID,916.16,VALID,0,VALID,99.7065,VALID,0,VALID,19.4368,VALID,145,VALID,0.679893,
2002-04-26, 00:30:00,VALID,916.159,VALID,0,VALID,99.7078,VALID,0,VALID,19.4428,VALID,146,VALID,0.666385,
2002-04-26, 00:31:00,VALID,916.162,VALID,0,VALID,99.7078,VALID,-0.0169808,VALID,19.453,VALID,137,VALID,0.729297,
2002-04-26, 00:32:00,VALID,916.163,VALID,0,VALID,99.7052,VALID,-0.0169808,VALID,19.4559,VALID,119,VALID,0.66887,
2002-04-26, 00:33:00,VALID,916.182,VALID,0,VALID,99.7116,VALID,0,VALID,19.4398,VALID,125,VALID,0.89363,
2002-04-26, 00:34:00,VALID,916.175,VALID,0,VALID,99.7078,VALID,0.0169808,VALID,19.4398,VALID,121,VALID,1.00041,
2002-04-26, 00:35:00,VALID,916.172,VALID,0,VALID,99.6989,VALID,0,VALID,19.45,VALID,151,VALID,0.526316,
2002-04-26, 00:36:00,VALID,916.134,VALID,0,VALID,99.7129,VALID,0,VALID,19.4328,VALID,149,VALID,0.430743,
2002-04-26, 00:37:01,VALID,916.103,VALID,0,VALID,99.7091,VALID,0,VALID,19.4336,VALID,128,VALID,0.453516,
2002-04-26, 00:38:00,VALID,916.075,VALID,0,VALID,99.7103,VALID,0,VALID,19.4363,VALID,119,VALID,0.671274,
2002-04-26, 00:39:00,VALID,916.045,VALID,0,VALID,99.7078,VALID,0,VALID,19.4239,VALID,137,VALID,0.965946,
2002-04-26, 00:40:00,VALID,916.042,VALID,0,VALID,99.7078,VALID,0,VALID,19.4301,VALID,141,VALID,0.646587,
2002-04-26, 00:41:00,VALID,916.059,VALID,0,VALID,99.7129,VALID,0,VALID,19.4207,VALID,133,VALID,0.539885,
2002-04-26, 00:42:00,VALID,916.064,VALID,0,VALID,99.7154,VALID,0,VALID,19.4144,VALID,134,VALID,0.672508,
2002-04-26, 00:43:00,VALID,916.076,VALID,0,VALID,99.7141,VALID,0,VALID,19.411,VALID,136,VALID,0.761914,
2002-04-26, 00:44:00,VALID,916.071,VALID,0,VALID,99.7116,VALID,-0.0169808,VALID,19.4008,VALID,142,VALID,0.75621,
2002-04-26, 00:45:00,VALID,916.052,VALID,0,VALID,99.7154,VALID,0,VALID,19.3978,VALID,141,VALID,1.17208,
2002-04-26, 00:46:00,VALID,916.036,VALID,0,VALID,99.7103,VALID,0,VALID,19.4269,VALID,144,VALID,0.813117,
2002-04-26, 00:47:00,VALID,916.024,VALID,0,VALID,99.718,VALID,0.0169808,VALID,19.4207,VALID,130,VALID,0.564967,
2002-04-26, 00:48:00,VALID,915.995,VALID,0,VALID,99.7205,VALID,0,VALID,19.4303,VALID,135,VALID,0.672297,
2002-04-26, 00:49:01,VALID,915.979,VALID,0,VALID,99.7192,VALID,0,VALID,19.4271,VALID,121,VALID,0.464453,
2002-04-26, 00:50:00,VALID,915.963,VALID,0,VALID,99.7269,VALID,0,VALID,19.4043,VALID,115,VALID,0.672476,
2002-04-26, 00:51:00,VALID,915.95,VALID,0,VALID,99.718,VALID,0.0169808,VALID,19.401,VALID,145,VALID,0.562901,
2002-04-26, 00:52:00,VALID,915.92,VALID,0,VALID,99.723,VALID,0,VALID,19.3883,VALID,147,VALID,0.468133,
2002-04-26, 00:53:00,VALID,915.888,VALID,0,VALID,99.7116,VALID,0,VALID,19.3816,VALID,144,VALID,0.363487,
2002-04-26, 00:54:00,VALID,915.872,VALID,0,VALID,99.7103,VALID,-0.0339617,VALID,19.3854,VALID,137,VALID,0.712838,
2002-04-26, 00:55:01,VALID,915.855,VALID,0,VALID,99.7167,VALID,-0.0169808,VALID,19.3881,VALID,133,VALID,0.462109,
2002-04-26, 00:56:00,VALID,915.842,VALID,0,VALID,99.7141,VALID,-0.0169808,VALID,19.372,VALID,126,VALID,0.644231,
2002-04-26, 00:57:00,VALID,915.827,VALID,0,VALID,99.723,VALID,0,VALID,19.3563,VALID,146,VALID,0.64403,
2002-04-26, 00:58:00,VALID,915.804,VALID,0,VALID,99.7307,VALID,-0.0169808,VALID,19.3491,VALID,154,VALID,1.05387,
2002-04-26, 00:59:00,VALID,915.792,VALID,0,VALID,99.7205,VALID,0,VALID,19.3329,VALID,157,VALID,0.981908,
2002-04-26, 01:00:00,VALID,915.769,VALID,0,VALID,99.7141,VALID,-0.0169808,VALID,19.3235,VALID,159,VALID,0.951647,
2002-04-26, 01:01:01,VALID,915.743,VALID,0,VALID,99.723,VALID,-0.0169808,VALID,19.3141,VALID,161,VALID,1.10059,
2002-04-26, 01:02:00,VALID,915.725,VALID,0,VALID,99.7319,VALID,0,VALID,19.3011,VALID,165,VALID,0.666066,
2002-04-26, 01:03:00,VALID,915.704,VALID,0,VALID,99.7294,VALID,-0.0169808,VALID,19.3044,VALID,158,VALID,0.840345,
2002-04-26, 01:04:00,VALID,915.696,VALID,0,VALID,99.7345,VALID,-0.0169808,VALID,19.3014,VALID,156,VALID,0.784951,
2002-04-26, 01:05:00,VALID,915.682,VALID,0,VALID,99.737,VALID,-0.0169808,VALID,19.2914,VALID,158,VALID,0.817845,
2002-04-26, 01:06:00,VALID,915.68,VALID,0,VALID,99.7345,VALID,-0.0169808,VALID,19.2981,VALID,157,VALID,0.921664,
2002-04-26, 01:07:01,VALID,915.665,VALID,0,VALID,99.7332,VALID,0,VALID,19.3076,VALID,156,VALID,0.800391,
2002-04-26, 01:08:00,VALID,915.671,VALID,0,VALID,99.7319,VALID,-0.0169808,VALID,19.3071,VALID,170,VALID,0.586939,
2002-04-26, 01:09:01,VALID,915.66,VALID,0,VALID,99.7358,VALID,0,VALID,19.3039,VALID,171,VALID,0.663462,
2002-04-26, 01:10:00,VALID,915.652,VALID,0,VALID,99.7358,VALID,0,VALID,19.3071,VALID,167,VALID,0.688528,
2002-04-26, 01:11:00,VALID,915.647,VALID,0,VALID,99.7421,VALID,0.0169808,VALID,19.3108,VALID,160,VALID,1.00288,
2002-04-26, 01:12:00,VALID,915.663,VALID,0,VALID,99.7358,VALID,0,VALID,19.3203,VALID,164,VALID,0.792019,
2002-04-26, 01:13:01,VALID,915.633,VALID,0,VALID,99.7408,VALID,-0.0169808,VALID,19.3404,VALID,170,VALID,0.826367,
2002-04-26, 01:14:01,VALID,915.611,VALID,0,VALID,99.7345,VALID,-0.0339617,VALID,19.3372,VALID,159,VALID,0.310296,
2002-04-26, 01:15:00,VALID,915.6,VALID,0,VALID,99.7345,VALID,-0.0169808,VALID,19.3369,VALID,156,VALID,0.784255,
2002-04-26, 01:16:00,VALID,915.565,VALID,0,VALID,99.7459,VALID,-0.0339617,VALID,19.3203,VALID,156,VALID,0.557771,
2002-04-26, 01:17:00,VALID,915.542,VALID,0,VALID,99.7396,VALID,-0.0169808,VALID,19.3272,VALID,153,VALID,0.898026,
2002-04-26, 01:18:00,VALID,915.515,VALID,0,VALID,99.7332,VALID,0,VALID,19.317,VALID,146,VALID,0.785051,
2002-04-26, 01:19:01,VALID,915.487,VALID,0,VALID,99.737,VALID,-0.0339617,VALID,19.3073,VALID,146,VALID,0.689062,
2002-04-26, 01:20:00,VALID,915.482,VALID,0,VALID,99.7497,VALID,-0.0169808,VALID,19.3141,VALID,143,VALID,1.11118,
2002-04-26, 01:21:00,VALID,915.446,VALID,0,VALID,99.7408,VALID,-0.0339617,VALID,19.3464,VALID,138,VALID,1.20994,
2002-04-26, 01:22:00,VALID,915.441,VALID,0,VALID,99.737,VALID,-0.0169808,VALID,19.3595,VALID,146,VALID,0.844161,
2002-04-26, 01:23:00,VALID,915.424,VALID,0,VALID,99.7332,VALID,-0.0339617,VALID,19.3692,VALID,147,VALID,1.3197,
2002-04-26, 01:24:00,VALID,915.385,VALID,0,VALID,99.7269,VALID,-0.0169808,VALID,19.3789,VALID,158,VALID,1.0076,
2002-04-26, 01:25:01,VALID,915.374,VALID,0.2,VALID,99.7383,VALID,-0.0339617,VALID,19.3752,VALID,157,VALID,0.706836,
2002-04-26, 01:26:00,VALID,915.327,VALID,0,VALID,99.7345,VALID,0,VALID,19.369,VALID,139,VALID,0.744391,
2002-04-26, 01:27:00,VALID,915.307,VALID,0,VALID,99.737,VALID,0,VALID,19.356,VALID,153,VALID,0.746995,
2002-04-26, 01:28:00,VALID,915.292,VALID,0,VALID,99.7408,VALID,0,VALID,19.3431,VALID,146,VALID,0.894737,
2002-04-26, 01:29:00,VALID,915.272,VALID,0,VALID,99.7459,VALID,0,VALID,19.3593,VALID,161,VALID,0.831826,
2002-04-26, 01:30:00,VALID,915.265,VALID,0,VALID,99.7459,VALID,-0.0169808,VALID,19.3558,VALID,139,VALID,0.887247,
2002-04-26, 01:31:01,VALID,915.268,VALID,0,VALID,99.7421,VALID,0,VALID,19.3501,VALID,139,VALID,0.763281,
2002-04-26, 01:32:00,VALID,915.273,VALID,0,VALID,99.7447,VALID,0,VALID,19.3434,VALID,140,VALID,0.967748,
2002-04-26, 01:33:00,VALID,915.266,VALID,0,VALID,99.7434,VALID,-0.0169808,VALID,19.3429,VALID,155,VALID,0.878606,
2002-04-26, 01:34:00,VALID,915.271,VALID,0,VALID,99.7447,VALID,-0.0339617,VALID,19.3496,VALID,158,VALID,0.859992,
2002-04-26, 01:35:00,VALID,915.284,VALID,0,VALID,99.7421,VALID,0,VALID,19.3369,VALID,144,VALID,0.575658,
2002-04-26, 01:36:00,VALID,915.281,VALID,0,VALID,99.7485,VALID,0,VALID,19.3173,VALID,110,VALID,0.63239,
2002-04-26, 01:37:01,VALID,915.272,VALID,0,VALID,99.7485,VALID,-0.0339617,VALID,19.3076,VALID,157,VALID,0.4375,
2002-04-26, 01:38:00,VALID,915.27,VALID,0,VALID,99.7434,VALID,0.0169808,VALID,19.3069,VALID,136,VALID,0.703125,
2002-04-26, 01:39:01,VALID,915.265,VALID,0,VALID,99.7408,VALID,0,VALID,19.321,VALID,135,VALID,0.600761,
2002-04-26, 01:40:00,VALID,915.258,VALID,0,VALID,99.7434,VALID,0,VALID,19.2949,VALID,101,VALID,0.614104,
2002-04-26, 01:41:00,VALID,915.259,VALID,0,VALID,99.7459,VALID,0,VALID,19.2688,VALID,87,VALID,0.386513,
2002-04-26, 01:42:00,VALID,915.248,VALID,0,VALID,99.7472,VALID,-0.0339617,VALID,19.2534,VALID,55,VALID,0.2481,
2002-04-26, 01:43:01,VALID,915.261,VALID,0,VALID,99.7523,VALID,0,VALID,19.1687,VALID,47,VALID,0.681445,
2002-04-26, 01:44:00,VALID,915.256,VALID,0,VALID,99.7599,VALID,-0.0169808,VALID,19.1106,VALID,43,VALID,0.748197,
2002-04-26, 01:45:00,VALID,915.248,VALID,0,VALID,99.765,VALID,0,VALID,19.1334,VALID,44,VALID,0.671074,
2002-04-26, 01:46:00,VALID,915.245,VALID,0,VALID,99.7663,VALID,0,VALID,19.1401,VALID,44,VALID,0.646793,
2002-04-26, 01:47:00,VALID,915.236,VALID,0,VALID,99.765,VALID,-0.0339617,VALID,19.1366,VALID,60,VALID,0.502262,
2002-04-26, 01:48:00,VALID,915.236,VALID,0,VALID,99.7599,VALID,0,VALID,19.1426,VALID,59,VALID,0.274916,
2002-04-26, 01:49:01,VALID,915.223,VALID,0,VALID,99.7675,VALID,0,VALID,19.156,VALID,60,VALID,0.16226,
2002-04-26, 01:50:00,VALID,915.212,VALID,0,VALID,99.7663,VALID,0,VALID,19.1627,VALID,61,VALID,0.26262,
2002-04-26, 01:51:00,VALID,915.205,VALID,0,VALID,99.7714,VALID,-0.0169808,VALID,19.1655,VALID,86,VALID,0.690705,
2002-04-26, 01:52:00,VALID,915.196,VALID,0,VALID,99.7637,VALID,0,VALID,19.2042,VALID,106,VALID,1.02961,
2002-04-26, 01:53:00,VALID,915.198,VALID,0,VALID,99.7625,VALID,0,VALID,19.2402,VALID,110,VALID,0.863692,
2002-04-26, 01:54:00,VALID,915.19,VALID,0,VALID,99.7548,VALID,-0.0169808,VALID,19.2432,VALID,121,VALID,0.72424,
2002-04-26, 01:55:01,VALID,915.184,VALID,0,VALID,99.7587,VALID,-0.0339617,VALID,19.2306,VALID,138,VALID,1.21445,
2002-04-26, 01:56:01,VALID,915.17,VALID,0,VALID,99.7536,VALID,-0.0169808,VALID,19.2661,VALID,145,VALID,1.22376,
2002-04-26, 01:57:00,VALID,915.151,VALID,0,VALID,99.765,VALID,-0.0169808,VALID,19.2721,VALID,129,VALID,0.911058,
2002-04-26, 01:58:01,VALID,915.144,VALID,0,VALID,99.765,VALID,0,VALID,19.2624,VALID,134,VALID,0.783512,
2002-04-26, 01:59:00,VALID,915.108,VALID,0,VALID,99.7625,VALID,0,VALID,19.2524,VALID,123,VALID,0.852796,
2002-04-26, 02:00:01,VALID,915.103,VALID,0,VALID,99.7523,VALID,0,VALID,19.2527,VALID,142,VALID,0.875633,
2002-04-26, 02:01:01,VALID,915.1,VALID,0,VALID,99.7701,VALID,0,VALID,19.2559,VALID,143,VALID,1.0168,
2002-04-26, 02:02:00,VALID,915.107,VALID,0,VALID,99.7752,VALID,0,VALID,19.2562,VALID,139,VALID,0.742188,
2002-04-26, 02:03:01,VALID,915.104,VALID,0,VALID,99.765,VALID,0,VALID,19.2465,VALID,143,VALID,0.995994,
2002-04-26, 02:04:00,VALID,915.116,VALID,0,VALID,99.7625,VALID,-0.0339617,VALID,19.2562,VALID,146,VALID,1.36349,
2002-04-26, 02:05:00,VALID,915.116,VALID,0,VALID,99.7637,VALID,-0.0339617,VALID,19.2562,VALID,151,VALID,1.02118,
2002-04-26, 02:06:00,VALID,915.117,VALID,0,VALID,99.7587,VALID,-0.0169808,VALID,19.2365,VALID,148,VALID,1.05131,
2002-04-26, 02:07:01,VALID,915.104,VALID,0,VALID,99.7701,VALID,-0.0169808,VALID,19.2271,VALID,138,VALID,1.14277,
2002-04-26, 02:08:01,VALID,915.087,VALID,0,VALID,99.7637,VALID,-0.0169808,VALID,19.2335,VALID,157,VALID,0.865785,
2002-04-26, 02:09:01,VALID,915.067,VALID,0,VALID,99.7637,VALID,0,VALID,19.2206,VALID,144,VALID,1.16947,
2002-04-26, 02:10:01,VALID,915.047,VALID,0,VALID,99.7663,VALID,0,VALID,19.2142,VALID,159,VALID,0.629112,
2002-04-26, 02:11:01,VALID,915.019,VALID,0,VALID,99.7739,VALID,0.0169808,VALID,19.2045,VALID,140,VALID,1.29338,
2002-04-26, 02:12:01,VALID,915.019,VALID,0,VALID,99.7752,VALID,-0.0339617,VALID,19.1911,VALID,145,VALID,1.019,
2002-04-26, 02:13:01,VALID,915.032,VALID,0,VALID,99.779,VALID,0,VALID,19.1915,VALID,127,VALID,0.978125,
2002-04-26, 02:14:01,VALID,915.025,VALID,0,VALID,99.7854,VALID,-0.0169808,VALID,19.1622,VALID,135,VALID,0.433293,
2002-04-26, 02:15:01,VALID,915.014,VALID,0,VALID,99.7765,VALID,0,VALID,19.1657,VALID,127,VALID,0.528646,
2002-04-26, 02:16:01,VALID,914.979,VALID,0,VALID,99.7714,VALID,0,VALID,19.1424,VALID,128,VALID,0.710115,
2002-04-26, 02:17:01,VALID,914.964,VALID,0,VALID,99.7879,VALID,0,VALID,19.1558,VALID,132,VALID,0.72574,
2002-04-26, 02:18:01,VALID,914.949,VALID,0,VALID,99.7777,VALID,-0.0169808,VALID,19.1491,VALID,119,VALID,0.819046,
2002-04-26, 02:19:01,VALID,914.934,VALID,0,VALID,99.7841,VALID,0,VALID,19.1431,VALID,135,VALID,0.879492,
2002-04-26, 02:20:01,VALID,914.927,VALID,0,VALID,99.779,VALID,-0.0339617,VALID,19.1592,VALID,118,VALID,1.21795,
2002-04-26, 02:21:01,VALID,914.902,VALID,0,VALID,99.7777,VALID,0,VALID,19.1694,VALID,132,VALID,1.14183,
2002-04-26, 02:22:01,VALID,914.888,VALID,0,VALID,99.7803,VALID,-0.0169808,VALID,19.1662,VALID,135,VALID,1.10629,
2002-04-26, 02:23:01,VALID,914.868,VALID,0,VALID,99.7803,VALID,0.0849042,VALID,19.1772,VALID,130,VALID,1.57956,
2002-04-26, 02:24:01,VALID,914.858,VALID,0,VALID,99.7777,VALID,0.101885,VALID,19.203,VALID,150,VALID,1.74261,
2002-04-26, 02:25:01,VALID,914.838,VALID,0,VALID,99.779,VALID,0.0849042,VALID,19.203,VALID,145,VALID,1.50664,
2002-04-26, 02:26:01,VALID,914.807,VALID,0,VALID,99.7752,VALID,0.0849042,VALID,19.1963,VALID,138,VALID,1.42228,
2002-04-26, 02:27:01,VALID,914.786,VALID,0,VALID,99.779,VALID,0.0849042,VALID,19.2293,VALID,144,VALID,2.22877,
2002-04-26, 02:28:01,VALID,914.749,VALID,0,VALID,99.7828,VALID,0.0679233,VALID,19.242,VALID,148,VALID,1.94778,
2002-04-26, 02:29:01,VALID,914.726,VALID,0,VALID,99.7765,VALID,0.0509425,VALID,19.2515,VALID,145,VALID,1.05428,
2002-04-26, 02:30:01,VALID,914.713,VALID,0,VALID,99.7765,VALID,0.0849042,VALID,19.2549,VALID,150,VALID,1.606,
2002-04-26, 02:31:01,VALID,914.675,VALID,0,VALID,99.7739,VALID,0.0849042,VALID,19.2545,VALID,128,VALID,1.41152,
2002-04-26, 02:32:01,VALID,914.661,VALID,0,VALID,99.7828,VALID,0.101885,VALID,19.2708,VALID,133,VALID,1.61378,
2002-04-26, 02:33:00,VALID,914.633,VALID,0,VALID,99.7726,VALID,0.101885,VALID,19.2838,VALID,137,VALID,1.95873,
2002-04-26, 02:34:00,VALID,914.636,VALID,0,VALID,99.7777,VALID,0.135847,VALID,19.2868,VALID,129,VALID,1.20004,
2002-04-26, 02:35:00,VALID,914.605,VALID,0,VALID,99.779,VALID,0.118866,VALID,19.2997,VALID,130,VALID,1.8785,
2002-04-26, 02:36:00,VALID,914.589,VALID,0,VALID,99.7701,VALID,0.101885,VALID,19.3191,VALID,151,VALID,0.998311,
2002-04-26, 02:37:00,VALID,914.572,VALID,0,VALID,99.7765,VALID,0.0849042,VALID,19.3126,VALID,139,VALID,1.75703,
2002-04-26, 02:38:00,VALID,914.555,VALID,0,VALID,99.7752,VALID,0.0169808,VALID,19.3367,VALID,134,VALID,1.71034,
2002-04-26, 02:39:00,VALID,914.542,VALID,0,VALID,99.7701,VALID,0,VALID,19.3334,VALID,142,VALID,1.33474,
2002-04-26, 02:40:00,VALID,914.538,VALID,0,VALID,99.7752,VALID,0.0169808,VALID,19.3501,VALID,149,VALID,1.66262,
2002-04-26, 02:41:00,VALID,914.526,VALID,0,VALID,99.7663,VALID,0.0169808,VALID,19.3399,VALID,153,VALID,1.50555,
2002-04-26, 02:42:00,VALID,914.507,VALID,0,VALID,99.7765,VALID,0,VALID,19.3372,VALID,146,VALID,1.87521,
2002-04-26, 02:43:00,VALID,914.498,VALID,0,VALID,99.7765,VALID,0,VALID,19.3237,VALID,153,VALID,2.07129,
2002-04-26, 02:44:00,VALID,914.485,VALID,0,VALID,99.7739,VALID,-0.0169808,VALID,19.3404,VALID,142,VALID,2.10276,
2002-04-26, 02:45:00,VALID,914.492,VALID,0,VALID,99.7777,VALID,0,VALID,19.3595,VALID,151,VALID,2.05148,
2002-04-26, 02:46:00,VALID,914.502,VALID,0,VALID,99.7701,VALID,-0.0339617,VALID,19.3665,VALID,154,VALID,1.81394,
2002-04-26, 02:47:00,VALID,914.51,VALID,0,VALID,99.7752,VALID,-0.0339617,VALID,19.3369,VALID,147,VALID,1.90995,
2002-04-26, 02:48:00,VALID,914.523,VALID,0,VALID,99.7701,VALID,-0.0169808,VALID,19.3304,VALID,135,VALID,1.46833,
2002-04-26, 02:49:00,VALID,914.518,VALID,0,VALID,99.7765,VALID,0,VALID,19.3267,VALID,135,VALID,1.46113,
2002-04-26, 02:50:00,VALID,914.52,VALID,0,VALID,99.7841,VALID,-0.0169808,VALID,19.3173,VALID,139,VALID,1.48578,
2002-04-26, 02:51:00,VALID,914.509,VALID,0,VALID,99.7803,VALID,0,VALID,19.3143,VALID,149,VALID,1.02624,
2002-04-26, 02:52:00,VALID,914.491,VALID,0,VALID,99.7815,VALID,-0.0169808,VALID,19.3111,VALID,147,VALID,0.909128,
2002-04-26, 02:53:00,VALID,914.466,VALID,0,VALID,99.7815,VALID,0,VALID,19.3205,VALID,141,VALID,0.917558,
2002-04-26, 02:54:00,VALID,914.458,VALID,0,VALID,99.7828,VALID,-0.0169808,VALID,19.3143,VALID,132,VALID,0.970861,
2002-04-26, 02:55:00,VALID,914.453,VALID,0,VALID,99.7777,VALID,0,VALID,19.3044,VALID,137,VALID,1.2082,
2002-04-26, 02:56:00,VALID,914.441,VALID,0,VALID,99.7892,VALID,0,VALID,19.3044,VALID,152,VALID,2.27404,
2002-04-26, 02:57:00,VALID,914.419,VALID,0,VALID,99.7777,VALID,0,VALID,19.3173,VALID,152,VALID,2.59435,
2002-04-26, 02:58:00,VALID,914.418,VALID,0,VALID,99.7841,VALID,-0.0169808,VALID,19.324,VALID,156,VALID,1.53248,
2002-04-26, 02:59:00,VALID,914.409,VALID,0,VALID,99.7815,VALID,0,VALID,19.3272,VALID,152,VALID,1.78187,
2002-04-26, 03:00:00,VALID,914.404,VALID,0,VALID,99.7828,VALID,-0.0339617,VALID,19.3039,VALID,157,VALID,1.35114,
2002-04-26, 03:01:00,VALID,914.395,VALID,0,VALID,99.7841,VALID,-0.0169808,VALID,19.3148,VALID,152,VALID,1.52227,
2002-04-26, 03:02:00,VALID,914.378,VALID,0,VALID,99.7866,VALID,-0.0339617,VALID,19.2949,VALID,149,VALID,2.03986,
2002-04-26, 03:03:00,VALID,914.35,VALID,0,VALID,99.7968,VALID,0.0169808,VALID,19.2979,VALID,159,VALID,1.85076,
2002-04-26, 03:04:00,VALID,914.321,VALID,0,VALID,99.7879,VALID,-0.0169808,VALID,19.3011,VALID,151,VALID,1.63446,
2002-04-26, 03:05:00,VALID,914.288,VALID,0,VALID,99.7892,VALID,-0.0169808,VALID,19.3016,VALID,150,VALID,1.09087,
2002-04-26, 03:06:00,VALID,914.26,VALID,0,VALID,99.7904,VALID,0,VALID,19.2845,VALID,140,VALID,1.54519,
2002-04-26, 03:07:00,VALID,914.255,VALID,0,VALID,99.7904,VALID,0,VALID,19.2979,VALID,144,VALID,2.03652,
2002-04-26, 03:08:00,VALID,914.243,VALID,0,VALID,99.7904,VALID,0,VALID,19.3041,VALID,146,VALID,1.47396,
2002-04-26, 03:09:00,VALID,914.237,VALID,0,VALID,99.7828,VALID,-0.0169808,VALID,19.3074,VALID,126,VALID,1.03285,
2002-04-26, 03:10:00,VALID,914.237,VALID,0,VALID,99.7854,VALID,-0.0169808,VALID,19.3136,VALID,121,VALID,0.517681,
2002-04-26, 03:11:00,VALID,914.238,VALID,0,VALID,99.7854,VALID,-0.0169808,VALID,19.317,VALID,153,VALID,1.37993,
2002-04-26, 03:12:00,VALID,914.219,VALID,0,VALID,99.793,VALID,-0.0509425,VALID,19.3175,VALID,149,VALID,1.61698,
2002-04-26, 03:13:00,VALID,914.208,VALID,0,VALID,99.7866,VALID,-0.0169808,VALID,19.3342,VALID,163,VALID,1.74805,
2002-04-26, 03:14:00,VALID,914.19,VALID,0,VALID,99.7828,VALID,-0.0509425,VALID,19.3337,VALID,152,VALID,1.93229,
2002-04-26, 03:15:00,VALID,914.177,VALID,0,VALID,99.7815,VALID,-0.0339617,VALID,19.3332,VALID,131,VALID,1.49079,
2002-04-26, 03:16:00,VALID,914.148,VALID,0,VALID,99.7892,VALID,-0.0679233,VALID,19.3372,VALID,159,VALID,1.50843,
2002-04-26, 03:17:00,VALID,914.154,VALID,0,VALID,99.7892,VALID,-0.0509425,VALID,19.3237,VALID,149,VALID,1.68647,
2002-04-26, 03:18:00,VALID,914.137,VALID,0,VALID,99.7892,VALID,-0.0339617,VALID,19.3275,VALID,143,VALID,0.892948,
2002-04-26, 03:19:00,VALID,914.103,VALID,0,VALID,99.7828,VALID,-0.0509425,VALID,19.3307,VALID,129,VALID,0.807227,
2002-04-26, 03:20:00,VALID,914.094,VALID,0,VALID,99.7866,VALID,-0.0509425,VALID,19.3212,VALID,101,VALID,0.801482,
2002-04-26, 03:21:00,VALID,914.079,VALID,0,VALID,99.7955,VALID,0,VALID,19.2979,VALID,104,VALID,0.625801,
2002-04-26, 03:22:00,VALID,914.067,VALID,0,VALID,99.7943,VALID,-0.0169808,VALID,19.2984,VALID,100,VALID,0.32134,
2002-04-26, 03:23:00,VALID,914.065,VALID,0,VALID,99.7892,VALID,-0.0169808,VALID,19.2753,VALID,42,VALID,0.404194,
2002-04-26, 03:24:00,VALID,914.075,VALID,0,VALID,99.7955,VALID,-0.0509425,VALID,19.2527,VALID,77,VALID,0.692568,
2002-04-26, 03:25:00,VALID,914.08,VALID,0,VALID,99.7943,VALID,-0.0339617,VALID,19.2398,VALID,49,VALID,0.498437,
2002-04-26, 03:26:00,VALID,914.065,VALID,0,VALID,99.7955,VALID,-0.0169808,VALID,19.2308,VALID,98,VALID,0.647436,
2002-04-26, 03:27:00,VALID,914.071,VALID,0,VALID,99.8044,VALID,-0.0339617,VALID,19.237,VALID,52,VALID,0.608774,
2002-04-26, 03:28:00,VALID,914.05,VALID,0,VALID,99.8006,VALID,-0.0169808,VALID,19.2139,VALID,54,VALID,0.670847,
2002-04-26, 03:29:00,VALID,914.053,VALID,0,VALID,99.8006,VALID,-0.0849042,VALID,19.2107,VALID,84,VALID,0.543586,
2002-04-26, 03:30:00,VALID,914.039,VALID,0,VALID,99.7955,VALID,-0.0339617,VALID,19.2402,VALID,95,VALID,0.966427,
2002-04-26, 03:31:00,VALID,914.043,VALID,0,VALID,99.7892,VALID,-0.0509425,VALID,19.2566,VALID,95,VALID,0.90332,
2002-04-26, 03:32:00,VALID,914.027,VALID,0,VALID,99.7892,VALID,-0.0339617,VALID,19.2562,VALID,88,VALID,1.09916,
2002-04-26, 03:33:00,VALID,914.027,VALID,0,VALID,99.7892,VALID,-0.101885,VALID,19.24,VALID,81,VALID,0.784856,
2002-04-26, 03:34:00,VALID,914.005,VALID,0,VALID,99.7917,VALID,-0.0849042,VALID,19.2437,VALID,54,VALID,0.769326,
2002-04-26, 03:35:00,VALID,914.004,VALID,0,VALID,99.8019,VALID,-0.0679233,VALID,19.2112,VALID,55,VALID,0.877878,